Voltar ao catálogo

STARLINK-37521

AtivoComunicaçõesVLEO
NORAD 69822·PAYLOAD·🇺🇸 United States

Lançado Jul 5, 2026 de Cape Canaveral Space Force Station

Loading…

Próximas Passagens (próximas 24 horas)

TLE

AtualizadoSource: CelesTrak SupGP

Época: Sep 15, 2026, 04:15 UTC

1 69822C 26154D   26258.17756944  .00075261  00000+0  22237-2 0  2587
2 69822  53.1588 356.5614 0001214  94.4867 194.0280 15.34351253    12

Acompanhe STARLINK-37521 em tempo real com AllMySat

Download on the App Store